DW3930 Weather Reports


time (UTC)temp
C
wind
direction
speed
KPH
gust
KPH
rain 1hr
cm
rain 24hr
cm
rain mn
cm
humidity
%
barometer
mb
20260503194010 15 1 17.7 40.2 0.00 0.00 0.00 35 1009.0
20260503194007 15 360 17.7 38.6 0.00 0.00 0.00 51 1339.4
20260503193511 15 1 14.5 40.2 0.00 0.00 0.00 34 1009.0
20260503193506 15 360 14.5 40.2 0.00 0.00 0.00 50 1339.2
20260503193011 15 1 11.3 30.6 0.00 0.00 0.00 35 1009.0
20260503193006 15 360 9.7 30.6 0.00 0.00 0.00 29 1339.2
20260503192511 15 1 11.3 30.6 0.00 0.00 0.00 35 1009.1
20260503192507 15 360 11.3 30.6 0.00 0.00 0.00 51 1339.3
20260503192027 15 360 12.9 32.2 0.00 0.00 0.00 50 1339.5
20260503192011 15 1 12.9 32.2 0.00 0.00 0.00 34 1009.1
20260503191527 15 360 11.3 37.0 0.00 0.00 0.00 50 1339.5
20260503191511 15 1 11.3 32.2 0.00 0.00 0.00 35 1009.2
20260503191028 15 360 9.7 30.6 0.00 0.00 0.00 52 1339.9
20260503191011 15 1 11.3 30.6 0.00 0.00 0.00 38 1009.3
20260503190528 15 360 11.3 27.4 0.00 0.00 0.00 53 1339.8
20260503190511 15 1 11.3 32.2 0.00 0.00 0.00 38 1009.3
20260503190028 15 360 12.9 32.2 0.00 0.00 0.00 55 1340.0
20260503185511 15 1 14.5 38.6 0.00 0.00 0.00 39 1009.6
20260503185506 15 360 14.5 43.5 0.00 0.00 0.00 33 1340.3
20260503185011 15 1 12.9 37.0 0.00 0.00 0.00 39 1009.6
20260503185006 15 360 14.5 37.0 0.00 0.00 0.00 55 1340.4
20260503184511 14 1 14.5 37.0 0.00 0.00 0.00 41 1009.7
20260503184506 14 360 16.1 30.6 0.00 0.00 0.00 56 1340.4
20260503184011 14 1 14.5 40.2 0.00 0.00 0.00 41 1009.7
20260503184007 14 360 14.5 45.1 0.00 0.00 0.00 56 1340.4
20260503183511 15 1 12.9 40.2 0.00 0.00 0.00 41 1009.9
20260503183506 15 360 12.9 40.2 0.00 0.00 0.00 56 1340.6
20260503183006 15 360 12.9 40.2 0.00 0.00 0.00 56 1340.7
20260503182511 15 1 11.3 33.8 0.00 0.00 0.00 41 1009.8
20260503182507 15 360 11.3 25.7 0.00 0.00 0.00 56 1340.6
20260503182011 15 1 12.9 40.2 0.00 0.00 0.00 39 1009.8
20260503182006 15 360 12.9 33.8 0.00 0.00 0.00 55 1340.5
20260503181510 15 1 11.3 40.2 0.00 0.00 0.00 38 1009.9
20260503181506 15 360 11.3 43.5 0.00 0.00 0.00 53 1340.5
20260503181006 15 360 8.0 25.7 0.00 0.00 0.00 51 1340.4
20260503180510 15 1 11.3 27.4 0.00 0.00 0.00 37 1010.0
20260503180506 15 360 9.7 24.1 0.00 0.00 0.00 52 1340.5
20260503180011 15 1 11.3 27.4 0.00 0.00 0.00 35 1009.8
20260503180006 15 360 11.3 30.6 0.00 0.00 0.00 51 1340.6
20260503175511 16 1 11.3 27.4 0.00 0.00 0.00 35 1009.8
20260503175506 16 360 11.3 27.4 0.00 0.00 0.00 51 1340.4
20260503175011 16 1 11.3 30.6 0.00 0.00 0.00 34 1009.8
20260503175006 16 360 11.3 27.4 0.00 0.00 0.00 49 1340.5
20260503174510 16 352 12.9 32.2 0.00 0.00 0.00 34 1009.9
20260503174506 16 354 12.9 30.6 0.00 0.00 0.00 50 1340.7
20260503174027 16 330 12.9 30.6 0.00 0.00 0.00 49 1340.4
20260503174011 16 328 11.3 32.2 0.00 0.00 0.00 33 1009.9
20260503173528 17 292 9.7 20.9 0.00 0.00 0.00 48 1340.5
20260503173511 17 292 11.3 27.4 0.00 0.00 0.00 31 1009.8
20260503173027 17 289 9.7 27.4 0.00 0.00 0.00 28 1340.5
20260503173012 17 288 11.3 27.4 0.00 0.00 0.00 33 1009.9
20260503172511 17 282 12.9 32.2 0.00 0.00 0.00 37 1009.9
20260503172506 17 283 12.9 24.1 0.00 0.00 0.00 30 1340.4
20260503172011 17 276 12.9 32.2 0.00 0.00 0.00 33 1010.0
20260503172007 17 279 14.5 37.0 0.00 0.00 0.00 27 1340.8
20260503171510 17 290 8.0 25.7 0.00 0.00 0.00 35 1010.0
20260503171506 17 290 9.7 24.1 0.00 0.00 0.00 51 1340.7
20260503171011 17 293 8.0 32.2 0.00 0.00 0.00 37 1010.2
20260503171006 17 292 9.7 20.9 0.00 0.00 0.00 52 1340.9
20260503170510 17 280 11.3 32.2 0.00 0.00 0.00 33 1010.3
20260503170506 17 284 9.7 32.2 0.00 0.00 0.00 49 1341.0
20260503151006 13 350 8.0 25.7 0.00 0.00 0.00 59 1342.8
20260503150510 13 350 6.4 24.1 0.00 0.00 0.00 45 1011.6
20260503150506 13 350 6.4 24.1 0.00 0.00 0.00 59 1342.8
20260503131006 7 279 4.8 12.9 0.00 0.00 0.00 70 1344.2
20260503130528 7 302 3.2 11.3 0.00 0.00 0.00 72 1344.2
20260503130510 7 300 4.8 19.3 0.00 0.00 0.00 62 1012.8
20260503110511 0 0 0.0 0.0 0.00 0.00 0.00 73 1013.2
20260503110506 0 0 0.0 0.0 0.00 0.00 0.00 82 1344.9
20260503090511 -2 0 0.0 4.8 0.00 0.00 0.00 75 1013.4
20260503090506 -2 9 0.0 4.8 0.00 0.00 0.00 84 1344.9
20260503081510 -2 0 0.0 0.0 0.00 0.00 0.00 75 1013.4
20260503081506 -2 0 0.0 0.0 0.00 0.00 0.00 84 1345.1
20260503081010 -2 0 0.0 0.0 0.00 0.00 0.00 75 1013.4
20260503081006 -2 0 0.0 0.0 0.00 0.00 0.00 84 1345.1
20260503080506 -2 0 0.0 0.0 0.00 0.00 0.00 84 1345.1
20260503072527 -2 0 0.0 0.0 0.00 0.00 0.00 84 1345.0
20260503072512 -2 0 0.0 0.0 0.00 0.00 0.00 75 1013.3
20260503072006 -2 0 0.0 0.0 0.00 0.00 0.00 84 1345.0
20260503071527 -2 0 0.0 0.0 0.00 0.00 0.00 84 1344.9
20260503071511 -2 0 0.0 0.0 0.00 0.00 0.00 77 1013.3
20260503071027 -2 0 0.0 0.0 0.00 0.00 0.00 85 1344.9
20260503071011 -2 0 0.0 0.0 0.00 0.00 0.00 75 1013.3
20260503070510 -2 0 0.0 0.0 0.00 0.00 0.00 77 1013.4
20260503070506 -2 0 0.0 0.0 0.00 0.00 0.00 85 1344.9
20260503055010 -2 0 0.0 0.0 0.00 0.00 0.00 75 1014.1
20260503055006 -2 0 0.0 0.0 0.00 0.00 0.00 84 1346.0
20260503054511 -2 0 0.0 0.0 0.00 0.00 0.00 75 1014.1
20260503054506 -2 0 0.0 0.0 0.00 0.00 0.00 84 1345.9
20260503054010 -2 0 0.0 0.0 0.00 0.00 0.00 75 1014.2
20260503054006 -2 0 0.0 0.0 0.00 0.00 0.00 83 1346.0
20260503053510 -2 0 0.0 0.0 0.00 0.00 0.00 74 1014.1
20260503053506 -2 0 0.0 0.0 0.00 0.00 0.00 83 1346.0
20260503053010 -2 0 0.0 0.0 0.00 0.00 0.00 74 1014.3
20260503053006 -2 0 0.0 0.0 0.00 0.00 0.00 83 1346.2
20260503052506 -1 0 0.0 0.0 0.00 0.00 0.00 83 1346.3
20260503052010 -1 0 0.0 0.0 0.00 0.00 0.00 74 1014.4
20260503052006 -1 0 0.0 0.0 0.00 0.00 0.00 83 1346.4
20260503051510 -1 0 0.0 0.0 0.00 0.00 0.00 74 1014.4
20260503051505 -1 0 0.0 0.0 0.00 0.00 0.00 83 1346.4
20260503051006 -1 0 0.0 0.0 0.00 0.00 0.00 83 1346.4
20260503050510 -1 0 0.0 0.0 0.00 0.00 0.00 74 1014.5
20260503050506 -1 0 0.0 0.0 0.00 0.00 0.00 83 1346.5
20260503050010 -1 0 0.0 0.0 0.00 0.00 0.00 73 1014.5
20260503050006 -1 0 0.0 0.0 0.00 0.00 0.00 82 1346.5
20260503045510 -1 0 0.0 0.0 0.00 0.00 0.00 73 1014.5
20260503045506 -1 0 0.0 0.0 0.00 0.00 0.00 82 1346.5
20260503045010 -1 0 0.0 0.0 0.00 0.00 0.00 73 1014.5
20260503045006 -1 0 0.0 0.0 0.00 0.00 0.00 82 1346.6
20260503044506 -1 0 0.0 0.0 0.00 0.00 0.00 81 1346.7
20260503044010 -1 0 0.0 0.0 0.00 0.00 0.00 71 1014.5
20260503044006 -1 0 0.0 0.0 0.00 0.00 0.00 81 1346.7
20260503043510 -1 0 0.0 0.0 0.00 0.00 0.00 71 1014.6
20260503043505 -1 0 0.0 0.0 0.00 0.00 0.00 81 1346.8
20260503043027 -1 0 0.0 0.0 0.00 0.00 0.00 81 1346.7
20260503043010 -1 0 0.0 0.0 0.00 0.00 0.00 71 1014.6
20260503042509 -1 0 0.0 0.0 0.00 0.00 0.00 70 1014.6
20260503042506 -1 0 0.0 0.0 0.00 0.00 0.00 80 1346.8
20260503042010 -1 0 0.0 0.0 0.00 0.00 0.00 70 1014.7
20260503042006 -1 0 0.0 0.0 0.00 0.00 0.00 80 1346.8
20260503041510 -1 0 0.0 0.0 0.00 0.00 0.00 70 1014.7
20260503041505 -1 0 0.0 0.0 0.00 0.00 0.00 80 1346.9
20260503041010 -1 0 0.0 0.0 0.00 0.00 0.00 70 1014.8
20260503041006 -1 0 0.0 0.0 0.00 0.00 0.00 79 1346.9
20260503040506 -1 0 0.0 0.0 0.00 0.00 0.00 79 1346.9
20260503040012 -1 0 0.0 0.0 0.00 0.00 0.00 69 1014.8
20260503040007 -1 0 0.0 0.0 0.00 0.00 0.00 79 1347.1
20260503035509 -1 0 0.0 0.0 0.00 0.00 0.00 69 1014.8
20260503035506 -1 0 0.0 0.0 0.00 0.00 0.00 79 1347.2
20260503035027 0 0 0.0 0.0 0.00 0.00 0.00 78 1347.1
20260503035010 0 0 0.0 0.0 0.00 0.00 0.00 67 1014.8
20260503034510 0 0 0.0 0.0 0.00 0.00 0.00 67 1014.9
20260503034506 0 0 0.0 0.0 0.00 0.00 0.00 78 1347.1
20260503034010 0 0 0.0 0.0 0.00 0.00 0.00 66 1014.8
20260503034006 0 0 0.0 0.0 0.00 0.00 0.00 77 1347.1
20260503033506 0 0 0.0 0.0 0.00 0.00 0.00 77 1347.2
20260503033010 0 0 0.0 0.0 0.00 0.00 0.00 66 1014.9
20260503033006 0 0 0.0 0.0 0.00 0.00 0.00 77 1347.3
20260503032510 0 0 0.0 0.0 0.00 0.00 0.00 65 1014.9
20260503032506 0 0 0.0 0.0 0.00 0.00 0.00 75 1347.3
20260503032010 0 0 0.0 0.0 0.00 0.00 0.00 65 1014.9
20260503032006 0 0 0.0 0.0 0.00 0.00 0.00 75 1347.3
20260503031510 0 0 0.0 0.0 0.00 0.00 0.00 65 1014.9
20260503031506 0 0 0.0 0.0 0.00 0.00 0.00 75 1347.4
20260503031010 0 0 0.0 0.0 0.00 0.00 0.00 63 1015.0
20260503031005 0 0 0.0 0.0 0.00 0.00 0.00 74 1347.5
20260503030506 0 0 0.0 0.0 0.00 0.00 0.00 74 1347.4
20260503030010 0 0 0.0 0.0 0.00 0.00 0.00 62 1015.0
20260503030006 0 0 0.0 0.0 0.00 0.00 0.00 73 1347.5
20260503025510 0 0 0.0 0.0 0.00 0.00 0.00 61 1015.0
20260503025506 0 0 0.0 0.0 0.00 0.00 0.00 72 1347.4
20260503025010 0 0 0.0 0.0 0.00 0.00 0.00 61 1015.1
20260503025005 0 0 0.0 0.0 0.00 0.00 0.00 72 1347.5
20260503024509 0 0 0.0 0.0 0.00 0.00 0.00 59 1015.1
20260503024505 0 0 0.0 0.0 0.00 0.00 0.00 71 1347.7
20260503024027 0 0 0.0 0.0 0.00 0.00 0.00 71 1347.7
20260503024010 0 0 0.0 0.0 0.00 0.00 0.00 59 1015.2
20260503023510 1 0 0.0 0.0 0.00 0.00 0.00 58 1015.3
20260503023505 1 0 0.0 0.0 0.00 0.00 0.00 70 1347.7
20260503023005 1 0 0.0 0.0 0.00 0.00 0.00 70 1347.9
20260503022509 1 0 0.0 0.0 0.00 0.00 0.00 58 1015.3
20260503022505 1 0 0.0 0.0 0.00 0.00 0.00 70 1348.0
20260503022027 1 0 0.0 0.0 0.00 0.00 0.00 70 1348.0
20260503022010 1 0 0.0 0.0 0.00 0.00 0.00 58 1015.3
20260503021511 1 0 0.0 0.0 0.00 0.00 0.00 58 1015.2
20260503021506 1 0 0.0 0.0 0.00 0.00 0.00 70 1347.9
20260503021027 1 0 0.0 0.0 0.00 0.00 0.00 70 1347.9
20260503021010 1 0 0.0 0.0 0.00 0.00 0.00 58 1015.3
20260503020509 1 0 0.0 0.0 0.00 0.00 0.00 58 1015.3
20260503020505 2 0 0.0 0.0 0.00 0.00 0.00 70 1347.9
20260503020010 2 0 0.0 0.0 0.00 0.00 0.00 57 1015.3
20260503020006 2 0 0.0 0.0 0.00 0.00 0.00 69 1347.9
20260503015510 2 0 0.0 0.0 0.00 0.00 0.00 57 1015.3
20260503015506 2 0 0.0 0.0 0.00 0.00 0.00 69 1348.0
20260503015010 2 0 0.0 0.0 0.00 0.00 0.00 55 1015.3
20260503015006 2 0 0.0 0.0 0.00 0.00 0.00 68 1348.0
20260503014509 2 0 0.0 0.0 0.00 0.00 0.00 55 1015.3
20260503014506 2 0 0.0 0.0 0.00 0.00 0.00 68 1348.0
20260503014027 2 0 0.0 0.0 0.00 0.00 0.00 68 1347.9
20260503014010 2 0 0.0 0.0 0.00 0.00 0.00 55 1015.3
20260503013510 3 0 0.0 0.0 0.00 0.00 0.00 54 1015.2
20260503013506 3 0 0.0 0.0 0.00 0.00 0.00 67 1347.9
20260503013010 3 0 0.0 0.0 0.00 0.00 0.00 53 1015.2
20260503013005 3 0 0.0 0.0 0.00 0.00 0.00 66 1347.8
20260503012510 3 0 0.0 0.0 0.00 0.00 0.00 53 1015.2
20260503012505 3 0 0.0 0.0 0.00 0.00 0.00 64 1347.9
20260503012011 3 0 0.0 0.0 0.00 0.00 0.00 51 1015.2
20260503012005 3 0 0.0 0.0 0.00 0.00 0.00 64 1347.7
20260503011510 3 0 0.0 0.0 0.00 0.00 0.00 50 1015.2
20260503011506 3 0 0.0 0.0 0.00 0.00 0.00 63 1347.7
20260503011005 4 0 0.0 0.0 0.00 0.00 0.00 62 1347.8
20260503010510 4 0 0.0 0.0 0.00 0.00 0.00 49 1015.3
20260503010505 4 0 0.0 0.0 0.00 0.00 0.00 62 1347.7
20260503010010 5 0 0.0 0.0 0.00 0.00 0.00 47 1015.3
20260503010006 5 0 0.0 0.0 0.00 0.00 0.00 61 1347.7
20260503005509 5 0 0.0 0.0 0.00 0.00 0.00 46 1015.2
20260503005505 5 0 0.0 0.0 0.00 0.00 0.00 60 1347.7
20260503005005 5 0 0.0 0.0 0.00 0.00 0.00 59 1347.8
20260503004527 5 0 0.0 0.0 0.00 0.00 0.00 59 1347.8
20260503004510 5 0 0.0 0.0 0.00 0.00 0.00 45 1015.1
20260503004027 5 0 0.0 0.0 0.00 0.00 0.00 58 1347.7
20260503004010 5 0 0.0 0.0 0.00 0.00 0.00 43 1015.0
20260503003527 5 9 0.0 1.6 0.00 0.00 0.00 58 1347.6
20260503003010 6 0 0.0 0.0 0.00 0.00 0.00 42 1015.0
20260503003005 6 9 0.0 1.6 0.00 0.00 0.00 57 1347.6
20260503002505 6 9 0.0 0.0 0.00 0.00 0.00 57 1347.6
20260503002027 6 9 0.0 1.6 0.00 0.00 0.00 57 1347.5
20260503002010 6 0 0.0 4.8 0.00 0.00 0.00 42 1015.0
20260503001510 6 0 0.0 6.4 0.00 0.00 0.00 41 1015.0
20260503001505 6 9 1.6 4.8 0.00 0.00 0.00 56 1347.5
20260503001010 6 10 1.6 6.4 0.00 0.00 0.00 41 1015.0
20260503001005 6 9 1.6 6.4 0.00 0.00 0.00 56 1347.4
20260503000511 6 10 1.6 6.4 0.00 0.00 0.00 41 1014.9
20260503000505 6 9 1.6 6.4 0.00 0.00 0.00 56 1347.4
20260503000027 6 9 1.6 6.4 0.00 0.00 0.00 55 1347.4
20260503000010 6 10 1.6 6.4 0.00 0.00 0.00 39 1015.0
20260502235510 6 10 1.6 6.4 0.00 0.00 0.00 39 1014.9
20260502235506 6 9 1.6 6.4 0.00 0.00 0.00 55 1347.4
20260502235009 6 6 1.6 6.4 0.00 0.00 0.00 38 1014.9
20260502235005 6 5 3.2 8.0 0.00 0.00 0.00 53 1347.3
20260502234511 6 347 4.8 12.9 0.00 0.00 0.00 38 1014.9
20260502234506 6 345 4.8 8.0 0.00 0.00 0.00 53 1347.4
20260502234010 6 344 4.8 12.9 0.00 0.00 0.00 37 1015.0
20260502234005 6 344 4.8 17.7 0.00 0.00 0.00 52 1347.5
20260502233510 7 350 4.8 11.3 0.00 0.00 0.00 35 1015.0
20260502233506 7 351 4.8 12.9 0.00 0.00 0.00 51 1347.5
20260502233010 7 349 4.8 14.5 0.00 0.00 0.00 35 1015.0
20260502233005 7 350 4.8 8.0 0.00 0.00 0.00 51 1347.5
20260502232505 7 2 4.8 17.7 0.00 0.00 0.00 50 1347.6
20260502232005 7 15 6.4 8.0 0.00 0.00 0.00 50 1347.7
20260502231526 7 5 8.0 17.7 0.00 0.00 0.00 49 1347.7
20260502231510 7 4 8.0 19.3 0.00 0.00 0.00 33 1015.0
20260502231027 7 360 8.0 19.3 0.00 0.00 0.00 50 1347.6
20260502231010 7 356 8.0 19.3 0.00 0.00 0.00 34 1015.1
20260502230509 7 359 6.4 20.9 0.00 0.00 0.00 33 1015.1
20260502230505 7 1 6.4 17.7 0.00 0.00 0.00 49 1347.7
20260502230027 8 358 4.8 20.9 0.00 0.00 0.00 49 1347.6
20260502230010 8 355 6.4 20.9 0.00 0.00 0.00 33 1015.1
20260502225510 8 354 6.4 19.3 0.00 0.00 0.00 31 1015.1
20260502225506 8 356 6.4 14.5 0.00 0.00 0.00 48 1347.7
20260502225005 8 350 8.0 19.3 0.00 0.00 0.00 48 1347.6
20260502224509 8 356 8.0 24.1 0.00 0.00 0.00 31 1015.1
20260502224505 8 360 6.4 24.1 0.00 0.00 0.00 48 1347.6
20260502224010 8 359 8.0 20.9 0.00 0.00 0.00 31 1015.1
20260502224005 8 360 8.0 20.9 0.00 0.00 0.00 48 1347.5
20260502223510 8 355 8.0 20.9 0.00 0.00 0.00 30 1015.1
20260502223505 8 355 8.0 24.1 0.00 0.00 0.00 47 1347.6
20260502223010 8 8 6.4 19.3 0.00 0.00 0.00 31 1015.1
20260502223005 8 7 8.0 19.3 0.00 0.00 0.00 48 1347.6
20260502222505 8 4 8.0 19.3 0.00 0.00 0.00 47 1347.7
20260502222010 8 354 8.0 17.7 0.00 0.00 0.00 33 1015.1
20260502222005 8 356 8.0 19.3 0.00 0.00 0.00 48 1347.7
20260502221510 8 344 8.0 19.3 0.00 0.00 0.00 31 1015.2
20260502221505 8 345 8.0 17.7 0.00 0.00 0.00 48 1347.8
20260502221010 8 336 6.4 19.3 0.00 0.00 0.00 33 1015.2
20260502221005 8 337 8.0 20.9 0.00 0.00 0.00 48 1347.7
20260502220509 8 355 6.4 20.9 0.00 0.00 0.00 33 1015.1
20260502220505 8 355 8.0 17.7 0.00 0.00 0.00 49 1347.6
20260502220010 8 355 8.0 20.9 0.00 0.00 0.00 31 1015.2
20260502220005 8 356 8.0 20.9 0.00 0.00 0.00 47 1347.7
20260502215510 8 344 8.0 24.1 0.00 0.00 0.00 30 1015.1
20260502215505 8 341 9.7 19.3 0.00 0.00 0.00 47 1347.6
20260502215005 8 348 9.7 24.1 0.00 0.00 0.00 48 1347.5
20260502214509 8 349 8.0 20.9 0.00 0.00 0.00 33 1015.1
20260502214505 8 353 8.0 24.1 0.00 0.00 0.00 49 1347.6
20260502214026 8 347 9.7 24.1 0.00 0.00 0.00 48 1347.6
20260502214010 8 340 8.0 19.3 0.00 0.00 0.00 31 1015.2
20260502213510 8 338 8.0 19.3 0.00 0.00 0.00 33 1015.1
20260502213506 8 338 8.0 19.3 0.00 0.00 0.00 48 1347.6
20260502213010 8 338 6.4 19.3 0.00 0.00 0.00 31 1015.2
20260502213005 8 337 6.4 20.9 0.00 0.00 0.00 48 1347.6
20260502212509 8 347 6.4 19.3 0.00 0.00 0.00 31 1015.2
20260502212505 8 350 6.4 19.3 0.00 0.00 0.00 48 1347.6
20260502212027 8 5 6.4 19.3 0.00 0.00 0.00 47 1347.7
20260502212010 8 6 8.0 19.3 0.00 0.00 0.00 30 1015.2
20260502211510 8 359 8.0 27.4 0.00 0.00 0.00 30 1015.1
20260502211505 8 356 8.0 20.9 0.00 0.00 0.00 47 1347.7
20260502211009 8 341 8.0 27.4 0.00 0.00 0.00 29 1015.2
20260502211006 8 344 9.7 27.4 0.00 0.00 0.00 46 1347.6
20260502210510 8 334 8.0 19.3 0.00 0.00 0.00 30 1015.2
20260502210505 8 339 8.0 19.3 0.00 0.00 0.00 47 1347.6
20260502210010 8 334 8.0 19.3 0.00 0.00 0.00 31 1015.1
20260502210006 8 334 8.0 17.7 0.00 0.00 0.00 48 1347.7
20260502205505 8 340 9.7 24.1 0.00 0.00 0.00 50 1347.5
20260502205011 8 1 8.0 19.3 0.00 0.00 0.00 35 1015.2
20260502205005 8 359 8.0 19.3 0.00 0.00 0.00 51 1347.8
20260502204510 8 350 8.0 19.3 0.00 0.00 0.00 33 1015.2
20260502204505 8 349 8.0 19.3 0.00 0.00 0.00 49 1347.8
20260502204009 8 349 8.0 24.1 0.00 0.00 0.00 34 1015.2
20260502204005 8 345 8.0 24.1 0.00 0.00 0.00 50 1348.0
20260502203526 8 338 9.7 24.1 0.00 0.00 0.00 49 1347.9
20260502203509 8 337 11.3 24.1 0.00 0.00 0.00 33 1015.3
20260502203010 8 332 8.0 24.1 0.00 0.00 0.00 31 1015.2
20260502203005 8 334 9.7 24.1 0.00 0.00 0.00 48 1347.8
20260502202527 8 346 9.7 24.1 0.00 0.00 0.00 49 1347.9
20260502202510 8 347 8.0 24.1 0.00 0.00 0.00 33 1015.3
20260502202010 8 7 8.0 19.3 0.00 0.00 0.00 34 1015.3
20260502202006 8 5 8.0 19.3 0.00 0.00 0.00 50 1347.9
20260502201509 8 3 6.4 14.5 0.00 0.00 0.00 35 1015.4
20260502201505 8 1 6.4 17.7 0.00 0.00 0.00 51 1348.0
20260502201010 8 338 6.4 14.5 0.00 0.00 0.00 37 1015.4
20260502201005 8 337 8.0 17.7 0.00 0.00 0.00 52 1348.0
20260502200509 8 346 8.0 24.1 0.00 0.00 0.00 34 1015.5
20260502200505 8 347 9.7 17.7 0.00 0.00 0.00 50 1348.1
20260502200009 8 3 11.3 24.1 0.00 0.00 0.00 33 1015.5
20260502200005 8 3 9.7 27.4 0.00 0.00 0.00 49 1348.2
20260502195510 8 5 11.3 32.2 0.00 0.00 0.00 33 1015.5
20260502195505 8 5 9.7 19.3 0.00 0.00 0.00 49 1348.2
20260502195027 8 355 9.7 32.2 0.00 0.00 0.00 49 1348.2
20260502195010 8 352 8.0 32.2 0.00 0.00 0.00 33 1015.6
20260502194509 8 343 8.0 24.1 0.00 0.00 0.00 31 1015.5
20260502194505 8 341 8.0 17.7 0.00 0.00 0.00 49 1348.2